Regional Weather Roundup
Issued by NWS

Home | Current Version | Previous Version | Graphics & Text | Print | Product List | Glossary On
Versions: 1 2 3 4 5 6 7 8 9 10 11 12 13 14 15 16 17 18 19 20 21 22 23 24 25 26 27 28 29 30 31 32 33 34 35 36 37 38 39 40 41 42 43 44 45 46 47 48 49 50
000
ASUS45 KPSR 250410
RWRAZ

ARIZONA HOURLY REGIONAL WEATHER ROUNDUP
NATIONAL WEATHER SERVICE PHOENIX AZ
900 PM MST SAT JUN 24 2017

NOTE: FAIR INDICATES FEW OR NO CLOUDS BELOW 12,000 FEET WITH NO
SIGNIFICANT WEATHER AND/OR OBSTRUCTIONS TO VISIBILITY.

AZZ001>003-036-250500-
NORTHWEST ARIZONA

CITY           SKY/WX    TMP DP  RH WIND       PRES   REMARKS
BULLHEAD CITY  MOCLDY   111  27   5 VRB5      29.61R HX 103
KINGMAN        PTCLDY    93  28  10 CALM      29.92R
$$

AZZ004>008-015-016-018-250500-
NORTH CENTRAL ARIZONA

CITY           SKY/WX    TMP DP  RH WIND       PRES   REMARKS
GRAND CANYON   PTCLDY    66  27  23 CALM      30.22R
PRESCOTT       PTCLDY    84  34  16 W6        30.08R
FLAGSTAFF      PTCLDY    77  26  15 W5        30.25R
PAYSON         MOCLDY    86  37  17 N5        30.13R
PAGE           CLEAR     93  31  11 N5        29.99R
$$

AZZ009>014-017-250500-
NORTHEAST ARIZONA

CITY           SKY/WX    TMP DP  RH WIND       PRES   REMARKS
WINSLOW        MOCLDY    86  31  13 W6        30.05R
SAINT JOHNS    PTCLDY    83  40  21 S14       30.12R
WINDOW ROCK    CLEAR     76  21  12 N6        30.23R
SHOW LOW       MOCLDY    77  36  22 S12       30.22R
$$

AZZ540-542>544-546-548-250500-
GREATER PHOENIX AREA

CITY           SKY/WX    TMP DP  RH WIND       PRES   REMARKS
PHOENIX        PTCLDY   105  41  11 SW3       29.68R HX 100
BUCKEYE        MOCLDY   100  41  13 SW8       29.69R
LUKE AFB       CLEAR    105  40  11 S6        29.67R
DEER VALLEY    CLEAR    103  39  11 CALM      29.71R
SCOTTSDALE     CLEAR    105  38  10 CALM      29.73R
CHANDLER       CLEAR    102  41  12 SW6       29.71R
$$

AZZ539-553-250500-
SOUTHWEST MARICOPA COUNTY AND PINAL COUNTY

CITY           SKY/WX    TMP DP  RH WIND       PRES   REMARKS
CASA GRANDE      N/A    N/A N/A N/A MISG        N/A
GILA BEND      MOCLDY   108  39  10 SW9       29.67R HX 102
$$

AZZ503-504-507>509-250500-
SOUTHEAST ARIZONA

CITY           SKY/WX    TMP DP  RH WIND       PRES   REMARKS
TUCSON         PTCLDY   100  34  10 NW6       29.86R
DAVIS-MONTHAN  PTCLDY    99  33  10 NW8       29.85R
NOGALES        PTCLDY    94  39  14 NW6       29.99R
SIERRA VISTA   CLOUDY    92  37  14 SE10      30.10R
DOUGLAS        CLOUDY    82  55  39 E31G45    30.10R
SAFFORD        MOCLDY    91  50  24 S21G31    29.97R
$$

AZZ532-250500-
SOUTHWEST ARIZONA

CITY           SKY/WX    TMP DP  RH WIND       PRES   REMARKS
YUMA           PTCLDY    97  53  22 S5        29.64R
$$

CAZ041-043-047-048-061-525>527-560>570-250500-
SOUTHERN CALIFORNIA

CITY           SKY/WX    TMP DP  RH WIND       PRES   REMARKS
DOWNTOWN L.A.  CLEAR     68  60  75 W5        29.85R
L.A. AIRPORT   PTCLDY    65  62  90 SW9       29.86R
SAN DIEGO      PTCLDY    66  61  84 NW8       29.88R
BURBANK        CLEAR     74  58  57 SE9       29.85R
ONTARIO        PTCLDY    78  59  51 SW6       29.85R
RIVERSIDE      CLEAR     79  61  53 W8        29.85R
PALM SPRINGS   CLEAR    104  46  14 NW21G30   29.66R HX 100
EL CENTRO NAS  PTCLDY   103  47  15 W15       29.64R
IMPERIAL       MOCLDY   100  57  23 W9        29.61R
BLYTHE         MOCLDY   111  32   6 SW14      29.62R HX 103
NEEDLES        MOCLDY   112  21   4 W6        29.64R HX 103
$$

NVZ020-UTZ003-250500-
SOUTHERN NEVADA-UTAH

CITY           SKY/WX    TMP DP  RH WIND       PRES   REMARKS
LAS VEGAS      PTCLDY   107  18   4 CALM      29.77R
SALT LAKE CITY CLEAR     75  43  31 S5        30.13R
$$

NMZ009-TXZ055-250500-
NEW MEXICO-WEST TEXAS

CITY           SKY/WX    TMP DP  RH WIND       PRES   REMARKS
ALBUQUERQUE    PTCLDY    73  47  39 S20G28    30.22R
EL PASO        CLOUDY    80  54  40 N15       30.16R
$$


........................KEY........................
SKY/WX - SKY CONDITION/WEATHER
TMP    - TEMPERATURE IN FAHRENHEIT
DP     - DEW POINT IN FAHRENHEIT
RH     - RELATIVE HUMIDITY IN PERCENT
WIND   - DIRECTION AND SPEED IN MILES PER HOUR (MPH)
VRB    - VARIABLE WIND DIRECTION
PRES   - MEAN SEA LEVEL PRESSURE IN INCHES OF MERCURY
         F - FALLING PRESSURE   R - RISING PRESSURE
         S - STEADY PRESSURE
VSB    - VISIBILITY IN MILES
HX     - HEAT INDEX IN FAHRENHEIT
WCI    - WIND CHILL INDEX IN FAHRENHEIT
TC     - TEMPERATURE IN CELSIUS WHICH IS ALSO KNOWN AS
         TEMPERATURE IN CENTIGRADE
AFB    - AIR FORCE BASE
         LUKE AFB IS LUKE AIR FORCE BASE
         DAVIS-MONTHAN IS DAVIS-MONTHAN AIR FORCE BASE
NAS    - NAVAL AIR STATION
         EL CENTRO NAS IS EL CENTRO NAVAL AIR STATION
N/A    - NOT AVAILABLE




USA.gov is the U.S. government's official web portal to all federal, state and local government web resources and services.